This demonstration page uses our WeatherBlox Daily Observations layout. Learn more.

Left ArrowRight Arrow

Hourly Observations for May 29, 2021

Temp ( °F °C ) Dew Point ( °F °C ) Humidity (%) Winds ( mph kmh ) Pressure ( in mb ) Visibility ( mi km ) Precip ( " mm )
12:56 am 00:56 Clear 47 8.3 44 6.7 90 90 E 13 20 30.14 1021 10 16 0.00 0.00
1:56 am 01:56 Clear 45 7.2 42 5.6 90 90 E 9 15 30.15 1021 10 16 0.00 0.00
2:27 am 02:27 Mostly Cloudy 46 8 43 6 87 87 ESE 14 22 30.17 1022 10 16 0.00 0.00
2:43 am 02:43 Cloudy 46 8 43 6 87 87 ESE 10 17 30.18 1022 10 16 0.00 0.00
2:56 am 02:56 Cloudy 46 7.8 42 5.6 86 86 ESE 10 17 30.16 1021 10 16 0.00 0.00
3:56 am 03:56 Cloudy 46 7.8 42 5.6 86 86 ESE 12 19 30.17 1022 10 16 0.00 0.00
4:56 am 04:56 Cloudy 46 7.8 42 5.6 86 86 SE 13 20 30.18 1022 10 16 0.00 0.00
5:56 am 05:56 Cloudy 46 7.8 42 5.6 86 86 ESE 10 17 30.20 1023 10 16 0.00 0.00
6:56 am 06:56 Cloudy 45 7.2 42 5.6 90 90 SE 10 17 30.20 1023 10 16 0.00 0.00
7:56 am 07:56 Cloudy 46 7.8 42 5.6 86 86 SSE 7 11 30.22 1023 10 16 0.00 0.00
8:56 am 08:56 Cloudy 47 8.3 43 6.1 86 86 SSE 14 22 30.18 1022 10 16 0.00 0.00
9:56 am 09:56 Cloudy 48 8.9 44 6.7 86 86 SSE 20 31 30.14 1021 10 16 0.00 0.00
10:56 am 10:56 Mostly Cloudy 51 10.6 45 7.2 80 80 S 14 22 30.16 1021 10 16 0.00 0.00
11:49 am 11:49 Cloudy 52 11 46 8 82 82 S 16 26 30.15 1021 10 16 0.00 0.00
11:56 am 11:56 Cloudy with Light Rain 52 11.1 46 7.8 80 80 S 16 26 30.14 1021 10 16 0.00 0.00
12:56 pm 12:56 Cloudy 54 12.2 47 8.3 77 77 VRB 6 9 30.20 1023 10 16 0.00 0.00
1:56 pm 13:56 Cloudy 57 13.9 48 8.9 72 72 Calm 30.18 1022 10 16 0.00 0.00
2:56 pm 14:56 Partly Cloudy 59 15 50 10 72 72 VRB 7 11 30.16 1021 10 16 0.00 0.00
3:56 pm 15:56 Mostly Sunny 60 15.6 50 10 70 70 SSE 13 20 30.14 1021 10 16 0.00 0.00
4:56 pm 16:56 Partly Cloudy 63 17.2 51 10.6 65 65 SE 10 17 30.12 1020 10 16 0.00 0.00
5:56 pm 17:56 Sunny 63 17.2 51 10.6 65 65 SE 9 15 30.10 1019 10 16 0.00 0.00
6:56 pm 18:56 Sunny 63 17.2 51 10.6 65 65 ESE 15 24 30.09 1019 10 16 0.00 0.00
7:56 pm 19:56 Sunny 61 16.1 49 9.4 65 65 SE 13 20 30.11 1020 10 16 0.00 0.00
8:56 pm 20:56 Sunny 59 15 49 9.4 69 69 SE 7 11 30.13 1020 10 16 0.00 0.00
9:56 pm 21:56 Mostly Clear 56 13.3 49 9.4 77 77 SE 7 11 30.15 1021 10 16 0.00 0.00
10:56 pm 22:56 Cloudy 57 13.9 49 9.4 74 74 SE 12 19 30.16 1021 10 16 0.00 0.00
11:56 pm 23:56 Cloudy 56 13.3 48 8.9 75 75 SSE 15 24 30.16 1021 10 16 0.00 0.00

Powered by AerisWeather